Weather History for KMDT - July, 2014

Change the Weather History Date:

Sunday, July 20, 2014

  Actual Average Record
Temperature  
Mean Temperature 74 °F 76 °F  
Max Temperature 82 °F 86 °F 101 °F (1991)
Min Temperature 66 °F 67 °F 53 °F (1965)
Degree Days  
Heating Degree Days 0 0  
Month to date heating degree days 0 0  
Since 1 June heating degree days 1 18  
Since 1 July heating degree days 0 0  
Cooling Degree Days 9 11  
Month to date cooling degree days 249 218  
Year to date cooling degree days 556 496  
Since 1 June cooling degree days 496 431  
Growing Degree Days 24 (Base 50)    
Moisture  
Dew Point 62 °F    
Average Humidity 69    
Maximum Humidity 87    
Minimum Humidity 51    
Precipitation  
Precipitation 0.00 in 0.16 in 1.90 in (1981)
Month to date precipitation 2.24 3.03  
Year to date precipitation 27.66 22.16  
Sea Level Pressure  
Sea Level Pressure 30.11 in    
Wind  
Wind Speed 3 mph (SE)    
Max Wind Speed 9 mph    
Max Gust Speed 12 mph    
Visibility 10 miles    
Events      
T = Trace of Precipitation, MM = Missing Value Source: NWS Daily Summary

Daily Weather History Graph

Daily Weather History Graph

Search for Another Location

Airport or City:

Trip Planner

Search our weather history database for the weather conditions in past years. The results will help you decide how hot, cold, wet, or windy it might be!

Date:

Astronomy

Jul. 20, 2014 Rise Set
Actual Time 5:54 AM EDT 8:32 PM EDT
Civil Twilight 5:22 AM EDT 9:03 PM EDT
Nautical Twilight 4:43 AM EDT 9:42 PM EDT
Astronomical Twilight 3:58 AM EDT 10:27 PM EDT
Moon 1:04 AM EDT (7/20) 3:13 PM EDT (7/20)
Length of Visible Light 15h 40m
Length of Day
14h 37m
Waning Crescent, 34% of the Moon is Illuminated
Jul 20
Waning Crescent
Jul 26
New
Aug 3
First Quarter
Aug 10
Full
Aug 17
Last Quarter

Hourly Weather History & Observations

Time (EDT) Temp. Heat Index Dew Point Humidity Pressure Visibility Wind Dir Wind Speed Gust Speed Precip Events Conditions
12:56 AM 69.1 °F - 61.0 °F 75% 30.14 in 10.0 mi NE 3.5 mph - 0.00 in   Mostly Cloudy
1:56 AM 68.0 °F - 62.1 °F 81% 30.13 in 10.0 mi NE 3.5 mph - 0.00 in   Mostly Cloudy
2:56 AM 68.0 °F - 61.0 °F 78% 30.11 in 10.0 mi Calm Calm - N/A   Mostly Cloudy
3:56 AM 66.9 °F - 62.1 °F 84% 30.10 in 9.0 mi NNE 3.5 mph - N/A   Mostly Cloudy
4:56 AM 66.9 °F - 61.0 °F 81% 30.12 in 10.0 mi NNW 3.5 mph - N/A   Mostly Cloudy
5:56 AM 66.0 °F - 62.1 °F 87% 30.12 in 8.0 mi Calm Calm - N/A   Overcast
6:56 AM 66.9 °F - 61.0 °F 81% 30.13 in 8.0 mi Calm Calm - N/A   Overcast
7:56 AM 68.0 °F - 60.1 °F 76% 30.15 in 10.0 mi Calm Calm - N/A   Mostly Cloudy
8:56 AM 70.0 °F - 60.1 °F 71% 30.16 in 10.0 mi Calm Calm - N/A   Mostly Cloudy
9:56 AM 72.0 °F - 59.0 °F 64% 30.15 in 10.0 mi NE 3.5 mph - N/A   Mostly Cloudy
10:56 AM 77.0 °F - 61.0 °F 58% 30.14 in 10.0 mi SSW 3.5 mph - N/A   Scattered Clouds
11:56 AM 79.0 °F - 61.0 °F 54% 30.13 in 10.0 mi South 4.6 mph - N/A   Mostly Cloudy
12:56 PM 80.1 °F 80.9 °F 60.1 °F 50% 30.11 in 10.0 mi SSE 5.8 mph - N/A   Scattered Clouds
1:56 PM 82.0 °F 83.1 °F 63.0 °F 52% 30.10 in 10.0 mi South 3.5 mph - N/A   Mostly Cloudy
2:56 PM 81.0 °F 81.7 °F 61.0 °F 50% 30.09 in 10.0 mi South 3.5 mph - N/A   Overcast
3:56 PM 80.1 °F 80.9 °F 60.1 °F 50% 30.09 in 10.0 mi Variable 3.5 mph - N/A   Overcast
4:56 PM 80.1 °F 81.2 °F 62.1 °F 54% 30.08 in 10.0 mi SSE 4.6 mph - N/A   Overcast
5:56 PM 81.0 °F 82.2 °F 63.0 °F 54% 30.08 in 10.0 mi Variable 4.6 mph - N/A   Overcast
6:56 PM 79.0 °F - 62.1 °F 56% 30.09 in 10.0 mi SSE 4.6 mph - N/A   Overcast
7:56 PM 78.1 °F - 66.0 °F 66% 30.10 in 10.0 mi Calm Calm - N/A   Overcast
8:56 PM 75.9 °F - 66.0 °F 71% 30.10 in 10.0 mi Calm Calm - N/A   Overcast
9:56 PM 75.0 °F - 66.0 °F 73% 30.11 in 10.0 mi SE 3.5 mph - N/A   Mostly Cloudy
10:56 PM 73.0 °F - 66.0 °F 79% 30.11 in 10.0 mi SSE 4.6 mph - N/A   Partly Cloudy
11:56 PM 72.0 °F - 66.0 °F 81% 30.12 in 10.0 mi South 3.5 mph - N/A   Partly Cloudy